Location: Bothwell
(42.3833°S, 147.0000°E)
Time: 19:42:21
(UTC+11:00)

CUBESAT XI-V - Pass Details

Date: 26 September 2022
Orbit: 666 x 689 km, 98.1° (Epoch: 25 November)

Event Time Altitude Azimuth Distance (km) Brightness Sun altitude
Rises 03:50:09 0° 180° (S) 3,083 ? -23.2°
Reaches altitude 10° 03:52:43 10° 192° (SSW) 2,163 ? -22.8°
Enters shadow 03:55:17 22° 222° (SW) 1,504 ? -22.3°
